Skip Page Navigation
NASA JPL Caltech
NASA Logo - Jet Propulsion Laboratory + View the NASA Portal
+ Center for Near-Earth Object Studies
JPL Home Earth Solar System Stars & Galaxies Technology
JPL Solar System Dynamics
BODIES ORBITS EPHEMERIDES TOOLS PHYSICAL DATA DISCOVERY FAQ SITE MAP
JPL Small-Body Database Browser
Search: [ help ]  
52761 (1998 MN14)
Classification: Amor [NEO]          SPK-ID: 2052761
Ephemeris | Orbit Diagram | Orbital Elements | Mission Design | Physical Parameters | Discovery Circumstances | Close-Approach Data ]

[ hide orbit diagram ]

For accurate long-term ephemerides, please instead use our Horizons system.This orbit viewer was implemented using two-body methods, and hence should not be used for determining accurate long-term trajectories (over several years or decades) or planetary encounter circumstances.


[ revert to old Java-based viewer ]

Orbital Elements at Epoch 2459000.5 (2020-May-31.0) TDB
Reference: JPL 62 (heliocentric ecliptic J2000)
 Element Value Uncertainty (1-sigma)   Units 
e .2242160067539233 1.9555e-07  
a 1.554557730098471 2.1208e-08 au
q 1.206001003587348 3.1806e-07 au
i 19.48292780779854 1.2888e-05 deg
node 258.9977118766364 1.6628e-05 deg
peri 350.426257420997 6.8854e-05 deg
M 127.9422252716397 0.00011647 deg
tp 2458748.894512903183
(2019-Sep-22.39451290)
0.00022393 TDB
period 707.9599808628013
1.94
1.4488e-05
3.967e-08
d
yr
n .5085033190170759 1.0406e-08 deg/d
Q 1.903114456609593 2.5964e-08 au
  Orbit Determination Parameters
   # obs. used (total)      335  
   data-arc span      8155 days (22.33 yr)  
   first obs. used      1998-06-25  
   last obs. used      2020-10-22  
   planetary ephem.      DE431  
   SB-pert. ephem.      SB431-N16  
   condition code      0  
   norm. resid. RMS      .5624  
   source      ORB  
   producer      Otto Matic  
   solution date      2020-Oct-23 08:26:21  

Additional Information
 Earth MOID = .193416 au 
 Jupiter MOID = 3.15409 au 
 T_jup = 4.352 
[ show covariance matrix ]

Ephemeris | Orbit Diagram | Orbital Elements | Mission Design | Physical Parameters | Discovery Circumstances | Close-Approach Data ]

Physical Parameter Table
Parameter Symbol Value Units Sigma Reference Notes
absolute magnitude H 17.8   n/a MPO468407  

52761 (1998 MN14)          Discovered 1998-Jun-25 by LINEAR at Socorro
Reference: 20030216/Numbers.arcLast Updated: 2004-04-19

[ hide close-approach data ]
Close-Approach Data   ...sorted by Date/Time (TDB)
Date/Time (TDB) Time Uncertainty
(days_HH:MM)
Body Nominal Distance (au) Minimum Distance (au) Maximum Distance (au) V-relative (km/s) V-infinity (km/s) JD (TDB) Time Uncertainty (minutes) Semi-major axis (km) Semi-minor axis (km) range-LOV angle (deg) N-sigma BP Orbit Ref. Reference Modified
1901-May-29 09:43 00:02 Earth 0.42135794900909 0.421330498247968 0.421385400205193 11.9566052205004 11.9560763335145 2415533.904629373 1.74194093947954 1526.40833008816 36.9998559054202 26.2718512511689 698860.642375077 T 62 CATAB v2.0f-lin.ifort 2020-Oct-23 08:26:36 2020-Oct-23 08:27
1903-Jun-07 20:39 < 00:01 Earth 0.1944933426065 0.194491246435391 0.194495443929361 10.0773303784654 10.0759708402615 2416273.360671772 0.907178424932353 1630.52344827594 25.385535527375 86.4300172848816 1038759.82438117 T 62 CATAB v2.0f-lin.ifort 2020-Oct-23 08:26:36 2020-Oct-23 08:27
1905-Jun-18 00:00 00:02 Earth 0.387264391088194 0.387239490865174 0.387289298286941 10.7989715748392 10.7983344343493 2417014.499753973 2.38979194263558 2880.29740645601 90.7333658474327 -64.5192035568114 563971.551670767 T 62 CATAB v2.0f-lin.ifort 2020-Oct-23 08:26:36 2020-Oct-23 08:27
1934-Jun-05 21:17 < 00:01 Earth 0.223841123027763 0.223830800905651 0.223851446856976 10.3493454275405 10.3481952000776 2427594.386796170 0.612657319446385 1103.86404144366 30.0430823233298 62.2453534286121 870807.29050492 T 62 CATAB v2.0f-lin.ifort 2020-Oct-23 08:26:36 2020-Oct-23 08:27
1936-Jun-13 20:13 00:01 Earth 0.309540012006136 0.309523695078277 0.309556363443769 10.4952243440778 10.4944041421124 2428333.342485514 1.19307011404608 5220.53968834178 25.5288296939529 -81.0284380186723 1452096.06827023 T 62 CATAB v2.0f-lin.ifort 2020-Oct-23 08:26:36 2020-Oct-23 08:27
1965-Jun-03 13:44 < 00:01 Earth 0.287841950149647 0.287833459518344 0.287850441045849 10.8790685858601 10.8782176760352 2438915.072465587 0.34843968336476 608.227249801401 31.4697214540988 45.9651388853275 846634.03988819 T 62 CATAB v2.0f-lin.ifort 2020-Oct-23 08:26:36 2020-Oct-23 08:27
1967-Jun-11 15:51 < 00:01 Earth 0.240021527043854 0.240014461794305 0.240028594050186 10.1800865572045 10.1789960364039 2439653.160612023 0.50730251441486 1083.36441593267 10.2614379485397 -71.0273862020023 3698419.50389166 T 62 CATAB v2.0f-lin.ifort 2020-Oct-23 08:26:36 2020-Oct-23 08:27
1996-May-31 20:03 < 00:01 Earth 0.364937680839672 0.364936848738895 0.364938512950904 11.4914828492943 11.4908474750851 2450235.335366231 0.192573721169883 112.369174210498 14.9726783395674 69.6704592632943 1773312.95862521 T 62 CATAB v2.0f-lin.ifort 2020-Oct-23 08:26:36 2020-Oct-23 08:27
1998-Jun-09 07:31 < 00:01 Earth 0.199438180873584 0.199437247409405 0.199439114345108 10.0415888948608 10.0402583473433 2450973.813249851 0.0858849754267001 78.0254019421162 12.374993543023 -54.3740092468361 2656996.11892893 T 62 CATAB v2.0f-lin.ifort 2020-Oct-23 08:26:36 2020-Oct-23 08:27
2000-Jun-21 22:34 < 00:01 Earth 0.442125845865747 0.442125243548649 0.442126448182972 10.9462477292385 10.9456971597974 2451717.440287877 0.202460541867534 212.516602709527 29.9870183565879 -89.540769222722 1608317.3941106 T 62 CATAB v2.0f-lin.ifort 2020-Oct-23 08:26:36 2020-Oct-23 08:27
2027-May-28 18:42 00:01 Earth 0.444863350107339 0.44485462088704 0.444872079334718 11.9895619855624 11.9890624211887 2461554.279347777 1.01982824809583 444.28667064014 44.506508888006 11.6084620152696 350700.885308648 T 62 CATAB v2.0f-lin.ifort 2020-Oct-23 08:26:36 2020-Oct-23 08:27
2029-Jun-07 08:15 < 00:01 Earth 0.198432623523707 0.198429488976389 0.198435758567609 10.1301912740684 10.1288656815244 2462294.843976820 0.294005208361365 528.505039786989 30.6842530842866 73.1118462053264 851229.349688526 T 62 CATAB v2.0f-lin.ifort 2020-Oct-23 08:26:36 2020-Oct-23 08:27
2031-Jun-17 14:23 < 00:01 Earth 0.36382232176323 0.363812968560607 0.36383167744386 10.7707435539882 10.7700635819734 2463035.099008798 0.615653354480894 1583.97433084286 68.5064521762177 -73.0482645916761 711744.958613927 T 62 CATAB v2.0f-lin.ifort 2020-Oct-23 08:26:36 2020-Oct-23 08:27
2060-Jun-05 05:44 < 00:01 Earth 0.239633793829754 0.239619881384115 0.239647707443406 10.4720707196993 10.4710088927458 2473615.739192378 0.715379964352596 1085.86866627355 34.3384816143045 50.3244527301387 730064.513754716 T 62 CATAB v2.0f-lin.ifort 2020-Oct-23 08:26:36 2020-Oct-23 08:27
2062-Jun-13 18:00 < 00:01 Earth 0.287492417731753 0.287475781309446 0.287509086803649 10.4235103309576 10.4226211493219 2474354.250323955 0.926945925332196 4903.05860839945 15.1702807416469 -80.2509521126163 2015322.99279219 T 62 CATAB v2.0f-lin.ifort 2020-Oct-23 08:26:36 2020-Oct-23 08:27
2091-Jun-03 20:30 00:01 Earth 0.309464085231709 0.309438594289818 0.309489577159241 11.0110990643214 11.0103171001518 2484936.353921374 1.31125714557808 1541.101585375 36.6435110535884 34.4417069980896 651087.494615519 T 62 CATAB v2.0f-lin.ifort 2020-Oct-23 08:26:36 2020-Oct-23 08:27
2093-Jun-10 23:06 00:01 Earth 0.225281470601394 0.225265282634474 0.225297667872154 10.1387851725994 10.1376185619144 2485674.462773272 1.05256164431202 2421.92929301132 12.4884864988828 -70.5276137644461 2964186.51821127 T 62 CATAB v2.0f-lin.ifort 2020-Oct-23 08:26:36 2020-Oct-23 08:27
2095-Jun-28 18:39 00:05 Earth 0.499265899906153 0.499237829978402 0.499293970250636 10.8243217298202 10.8238286813097 2486422.276993911 4.9667874869331 1576.19550008889 169.6341161973 27.540576592608 226628.701771812 T 62 CATAB v2.0f-lin.ifort 2020-Oct-23 08:26:36 2020-Oct-23 08:27
2122-Jun-01 13:56 00:02 Earth 0.388060500601775 0.388025993025486 0.388095008817368 11.583955401285 11.5833626573051 2496256.080255077 2.36070283513589 1891.64275282992 38.7174187566461 24.548371316902 586816.928087962 T 62 CATAB v2.0f-lin.ifort 2020-Oct-23 08:26:36 2020-Oct-23 08:27
2124-Jun-09 18:13 00:01 Earth 0.194498904081513 0.194495269034993 0.19450254909342 10.0541672943082 10.052804662503 2496995.258927650 1.1580369932579 2221.45731966 23.4159016537487 -85.3521303116738 1154797.17916509 T 62 CATAB v2.0f-lin.ifort 2020-Oct-23 08:26:36 2020-Oct-23 08:27
2126-Jun-21 23:27 00:03 Earth 0.4183965670089 0.418361476104452 0.418431661276587 10.9845959396913 10.9840161751915 2497737.477399935 3.39918035783025 2565.50224955729 132.941231736131 -47.0753120177808 346216.833104482 T 62 CATAB v2.0f-lin.ifort 2020-Oct-23 08:26:36 2020-Oct-23 08:27
2153-May-27 20:01 00:05 Earth 0.467875935519861 0.467829839923269 0.467922031469616 11.9919102493108 11.9914353496294 2507574.334352120 5.28063660018186 2386.3446076416 43.5619359834447 15.5880783550769 457176.683510266 T 62 CATAB v2.0f-lin.ifort 2020-Oct-23 08:26:36 2020-Oct-23 08:27
2155-Jun-08 17:50 00:02 Earth 0.206359741154873 0.206340180756822 0.206379313447128 10.2021778304163 10.2009121576572 2508316.243029753 1.51875974759956 2657.45929606218 30.5734932324195 68.4702906082418 849389.401351099 T 62 CATAB v2.0f-lin.ifort 2020-Oct-23 08:26:36 2020-Oct-23 08:27
2157-Jun-17 05:37 00:03 Earth 0.341099967545539 0.341056540088303 0.341143507446803 10.7200048752233 10.7192761723921 2509055.733884436 2.92268628182147 10007.1489832886 55.0711631837196 -77.490033470522 821286.669844364 T 62 CATAB v2.0f-lin.ifort 2020-Oct-23 08:26:36 2020-Oct-23 08:27
2186-Jun-06 14:51 00:02 Earth 0.257892955844082 0.257847867855827 0.257938052577369 10.5815060927604 10.5805296530597 2519637.118536928 2.21507803289253 3265.87344285806 34.389625415348 46.4931508739036 730659.692843191 T 62 CATAB v2.0f-lin.ifort 2020-Oct-23 08:26:36 2020-Oct-23 08:27
2188-Jun-13 21:55 00:03 Earth 0.268232581887109 0.268186461182886 0.268278882226737 10.3626297052268 10.361671075404 2520375.413346876 2.68089259227515 11186.5134709298 9.11173335897981 -78.1128125496887 2916035.89879016 T 62 CATAB v2.0f-lin.ifort 2020-Oct-23 08:26:36 2020-Oct-23 08:27
Ephemeris | Orbit Diagram | Orbital Elements | Mission Design | Physical Parameters | Discovery Circumstances | Close-Approach Data ]
ABOUT SSD CREDITS/AWARDS PRIVACY/COPYRIGHT GLOSSARY LINKS
FirstGov 2020-Oct-25 03:12 UT
(server date/time)  
NASA Home Page
Site Manager:   Ryan S. Park
Webmaster  Alan B. Chamberlin